Weather History for Cordova, AK

Change the Weather History Date:

Monday, August 5, 2013

  Actual Average Record
Temperature  
Mean Temperature 56 °F -  
Max Temperature 64 °F 61 °F 84 °F (1968)
Min Temperature 48 °F 48 °F 36 °F (1965)
Degree Days  
Heating Degree Days 9    
Growing Degree Days 6 (Base 50)    
Moisture  
Dew Point 51 °F    
Average Humidity 86    
Maximum Humidity 100    
Minimum Humidity 65    
Precipitation  
Precipitation 0.04 in - - ()
Sea Level Pressure  
Sea Level Pressure 30.06 in    
Wind  
Wind Speed 2 mph (East)    
Max Wind Speed 8 mph    
Max Gust Speed -    
Visibility 9 miles    
Events Rain    
Averages and records for this station are not official NWS values.
T = Trace of Precipitation, MM = Missing Value Source: NWS Daily Summary

Daily Weather History Graph

Daily Weather History Graph

Search for Another Location

Airport:

Trip Planner

Search our weather history database for the weather conditions in past years. The results will help you decide how hot, cold, wet, or windy it might be!

Date:

Astronomy

Aug. 05, 2013 Rise Set
Actual Time 5:30 AM AKDT 10:03 PM AKDT
Civil Twilight 4:31 AM AKDT 11:01 PM AKDT
Nautical Twilight 2:37 AM AKDT 12:48 AM AKDT
Astronomical Twilight Sun does not rise Sun does not rise
Moon 4:40 AM AKDT (8/5) 8:53 PM AKDT (8/5)
Length of Visible Light 18h 30m
Length of Day
16h 33m
Waning Crescent, 1% of the Moon is Illuminated
Aug 5
Waning Crescent
Aug 6
New
Aug 14
First Quarter
Aug 20
Full
Aug 28
Last Quarter

Hourly Weather History & Observations

Time (AKDT) Temp. Dew Point Humidity Pressure Visibility Wind Dir Wind Speed Gust Speed Precip Events Conditions
12:53 AM 52.0 °F 48.9 °F 89% 30.04 in 10.0 mi Calm Calm - N/A   Overcast
1:53 AM 51.1 °F 48.0 °F 89% 30.05 in 10.0 mi Calm Calm - N/A   Overcast
2:53 AM 51.1 °F 46.9 °F 86% 30.04 in 10.0 mi Calm Calm - N/A   Mostly Cloudy
3:53 AM 50.0 °F 46.9 °F 89% 30.04 in 10.0 mi Calm Calm - N/A   Scattered Clouds
4:37 AM 48.2 °F 46.4 °F 93% 30.04 in 10.0 mi Calm Calm - N/A   Overcast
4:53 AM 51.1 °F 48.0 °F 89% 30.04 in 10.0 mi ENE 4.6 mph - N/A   Overcast
5:17 AM 50.0 °F 46.4 °F 87% 30.04 in 10.0 mi Calm Calm - N/A   Overcast
5:25 AM 50.0 °F 46.4 °F 87% 30.04 in 10.0 mi Calm Calm - N/A   Mostly Cloudy
5:53 AM 48.9 °F 46.9 °F 93% 30.04 in 10.0 mi Calm Calm - N/A   Mostly Cloudy
6:00 AM 48.2 °F 48.2 °F 100% 30.04 in 10.0 mi Calm Calm - N/A   Overcast
6:53 AM 51.1 °F 48.9 °F 92% 30.05 in 10.0 mi Calm Calm - N/A   Overcast
7:53 AM 54.0 °F 50.0 °F 86% 30.06 in 10.0 mi Calm Calm - N/A   Mostly Cloudy
8:53 AM 55.9 °F 52.0 °F 87% 30.06 in 10.0 mi Calm Calm - N/A   Overcast
9:53 AM 57.9 °F 53.1 °F 84% 30.05 in 10.0 mi Calm Calm - N/A   Mostly Cloudy
10:53 AM 61.0 °F 52.0 °F 72% 30.05 in 10.0 mi Calm Calm - N/A   Mostly Cloudy
11:53 AM 64.0 °F 52.0 °F 65% 30.06 in 10.0 mi South 5.8 mph - N/A   Mostly Cloudy
12:36 PM 62.6 °F 53.6 °F 72% 30.06 in 10.0 mi Variable 5.8 mph - N/A   Overcast
12:53 PM 62.1 °F 53.1 °F 72% 30.06 in 10.0 mi South 8.1 mph - N/A   Mostly Cloudy
1:53 PM 61.0 °F 53.1 °F 75% 30.07 in 10.0 mi SW 5.8 mph - N/A   Overcast
2:53 PM 62.1 °F 54.0 °F 75% 30.07 in 10.0 mi ENE 4.6 mph - N/A   Overcast
3:24 PM 57.2 °F 53.6 °F 88% 30.07 in 10.0 mi ENE 8.1 mph - N/A   Overcast
3:53 PM 57.9 °F 54.0 °F 87% 30.08 in 10.0 mi ENE 5.8 mph - N/A   Overcast
4:53 PM 61.0 °F 54.0 °F 78% 30.07 in 10.0 mi East 4.6 mph - N/A   Overcast
5:53 PM 60.1 °F 54.0 °F 80% 30.07 in 10.0 mi East 6.9 mph - N/A   Overcast
6:53 PM 60.1 °F 53.1 °F 78% 30.07 in 10.0 mi ENE 4.6 mph - N/A   Overcast
7:53 PM 60.1 °F 53.1 °F 78% 30.07 in 10.0 mi Calm Calm - N/A   Overcast
8:53 PM 55.9 °F 52.0 °F 87% 30.07 in 10.0 mi NE 3.5 mph - N/A   Overcast
9:16 PM 55.4 °F 51.8 °F 88% 30.07 in 10.0 mi Calm Calm - N/A   Overcast
9:48 PM 53.6 °F 51.8 °F 94% 30.08 in 3.0 mi ENE 3.5 mph - 0.02 in Rain Light Rain
9:53 PM 54.0 °F 53.1 °F 97% 30.08 in 2.5 mi ENE 4.6 mph - 0.02 in Rain Light Rain
10:10 PM 55.4 °F 53.6 °F 94% 30.07 in 3.0 mi ENE 3.5 mph - 0.01 in Rain Light Rain
10:53 PM 54.0 °F 53.1 °F 97% 30.08 in 10.0 mi Calm Calm - 0.02 in   Overcast
11:53 PM 53.1 °F 52.0 °F 96% 30.09 in 10.0 mi Calm Calm - N/A   Overcast